Weather History for KDHT - December, 2011

Change the Weather History Date:

Saturday, December 3, 2011

  Actual Average Record
Temperature  
Mean Temperature 27 °F 36 °F  
Max Temperature 34 °F 51 °F 75 °F (2010)
Min Temperature 19 °F 22 °F 7 °F (1964)
Degree Days  
Heating Degree Days 38 29  
Month to date heating degree days 102 85  
Since 1 July heating degree days 954 1080  
Cooling Degree Days 0 0  
Month to date cooling degree days 0 0  
Year to date cooling degree days 1788 1138  
Moisture  
Dew Point 27 °F    
Average Humidity 77    
Maximum Humidity 92    
Minimum Humidity 61    
Precipitation  
Precipitation 0.08 in 0.02 in 0.61 in (1983)
Month to date precipitation 0.08 0.05  
Year to date precipitation 5.19 17.10  
Snow  
Snow 0.30 in 0.10 in 3.00 in (1973)
Month to date snowfall 0.3 0.3  
Since 1 July snowfall 0.3 2.2  
Snow Depth 0.00 in    
Sea Level Pressure  
Sea Level Pressure 29.98 in    
Wind  
Wind Speed 15 mph (WNW)    
Max Wind Speed 33 mph    
Max Gust Speed 41 mph    
Visibility 6 miles    
Events Rain , Snow    
T = Trace of Precipitation, MM = Missing Value Source: NWS Daily Summary

Daily Weather History Graph

Daily Weather History Graph

Search for Another Location

Airport or City:

Trip Planner

Search our weather history database for the weather conditions in past years. The results will help you decide how hot, cold, wet, or windy it might be!

Date:

Astronomy

Dec. 03, 2011 Rise Set
Actual Time 7:43 AM CST 5:35 PM CST
Civil Twilight 7:15 AM CST 6:04 PM CST
Nautical Twilight 6:43 AM CST 6:35 PM CST
Astronomical Twilight 6:12 AM CST 7:06 PM CST
Moon 1:32 PM CST (12/3) 1:24 AM CST (12/3)
Length of Visible Light 10h 48m
Length of Day
9h 51m
Waxing Gibbous, 63% of the Moon is Illuminated
Dec 3
Waxing Gibbous
Dec 10
Full
Dec 17
Last Quarter
Dec 24
New
Jan 1
First Quarter

Hourly Weather History & Observations

Time (CST) Temp. Windchill Dew Point Humidity Pressure Visibility Wind Dir Wind Speed Gust Speed Precip Events Conditions
12:53 AM 33.1 °F 23.4 °F 28.9 °F 85% 29.96 in 6.0 mi South 13.8 mph - N/A   Overcast
1:10 AM 33.8 °F 25.3 °F 30.2 °F 87% 29.92 in 6.0 mi South 11.5 mph - N/A   Overcast
1:36 AM 32.0 °F 23.0 °F 30.2 °F 93% 29.91 in 4.0 mi SSW 11.5 mph - N/A   Overcast
1:46 AM 32.0 °F 23.6 °F 30.2 °F 93% 29.90 in 2.5 mi SSW 10.4 mph - 0.00 in Rain Light Freezing Rain
1:53 AM 32.0 °F 23.6 °F 30.9 °F 96% 29.93 in 2.5 mi SSW 10.4 mph - 0.00 in Rain Light Freezing Rain
2:00 AM 32.0 °F 22.5 °F 30.2 °F 93% 29.91 in 4.0 mi SW 12.7 mph - 0.00 in Rain Light Freezing Rain
2:07 AM 32.0 °F 23.0 °F 30.2 °F 93% 29.90 in 4.0 mi SW 11.5 mph - 0.00 in Rain Light Freezing Rain
2:20 AM 32.0 °F 22.5 °F 30.2 °F 93% 29.90 in 5.0 mi SSW 12.7 mph - 0.00 in   Overcast
2:53 AM 32.0 °F 24.2 °F 30.9 °F 96% 29.90 in 5.0 mi SSW 9.2 mph - 0.00 in Rain Light Freezing Rain
3:24 AM 32.0 °F 24.8 °F 30.2 °F 93% 29.86 in 2.5 mi SSW 8.1 mph - 0.02 in Rain Light Freezing Rain
3:32 AM 32.0 °F 24.2 °F 30.2 °F 93% 29.86 in 3.0 mi SSW 9.2 mph - 0.02 in Rain Light Freezing Rain
3:53 AM 32.0 °F 23.6 °F 30.9 °F 96% 29.87 in 4.0 mi SSW 10.4 mph - 0.02 in Rain Light Freezing Rain
4:26 AM 32.0 °F 24.2 °F 30.2 °F 93% 29.83 in 3.0 mi SW 9.2 mph - 0.04 in Snow Light Snow
4:43 AM 32.0 °F 22.1 °F 30.2 °F 93% 29.84 in 1.8 mi SW 13.8 mph - 0.05 in Snow Light Snow
4:53 AM 32.0 °F 22.5 °F 30.9 °F 96% 29.85 in 2.0 mi WSW 12.7 mph - 0.05 in Snow Light Snow
5:01 AM 32.0 °F 21.2 °F 30.2 °F 93% 29.84 in 1.5 mi SW 16.1 mph - 0.00 in Snow Light Snow
5:10 AM 32.0 °F 22.5 °F 30.2 °F 93% 29.83 in 1.5 mi SW 12.7 mph - 0.00 in Snow Light Snow
5:22 AM 32.0 °F 22.1 °F 30.2 °F 93% 29.84 in 1.5 mi SW 13.8 mph - 0.00 in Snow Light Snow
5:53 AM 32.0 °F 23.0 °F 30.9 °F 96% 29.86 in 2.0 mi SW 11.5 mph - 0.01 in Snow Light Snow
6:02 AM 32.0 °F 23.0 °F 30.2 °F 93% 29.85 in 3.0 mi SW 11.5 mph - 0.00 in Snow Light Snow
6:30 AM 32.0 °F 24.2 °F 30.2 °F 93% 29.83 in 10.0 mi West 9.2 mph - 0.00 in   Overcast
6:53 AM 32.0 °F 28.7 °F 30.0 °F 92% 29.83 in 10.0 mi SE 3.5 mph - 0.00 in   Overcast
7:53 AM 32.0 °F 20.8 °F 30.0 °F 92% 29.88 in 10.0 mi SW 17.3 mph - N/A   Overcast
8:53 AM 33.1 °F 21.2 °F 30.0 °F 89% 29.91 in 5.0 mi West 20.7 mph 25.3 mph 0.00 in   Overcast
9:05 AM 32.0 °F 20.5 °F 30.2 °F 93% 29.90 in 1.8 mi West 18.4 mph - 0.00 in Snow Light Snow
9:19 AM 33.8 °F 23.5 °F 30.2 °F 87% 29.92 in 0.8 mi WNW 16.1 mph - 0.00 in Snow Light Snow
9:53 AM 33.1 °F 23.4 °F 30.9 °F 92% 29.94 in 1.8 mi NNW 13.8 mph - 0.00 in Snow Light Snow
10:10 AM 33.8 °F 23.9 °F 30.2 °F 87% 29.94 in 3.0 mi NNW 15.0 mph - 0.00 in Snow Light Snow
10:17 AM 33.8 °F 23.5 °F 30.2 °F 87% 29.94 in 5.0 mi NNW 16.1 mph 21.9 mph 0.00 in   Overcast
10:53 AM 33.1 °F 21.2 °F 28.9 °F 85% 29.99 in 10.0 mi NW 20.7 mph 28.8 mph 0.00 in   Overcast
11:53 AM 33.1 °F 20.1 °F 26.1 °F 75% 29.99 in 10.0 mi NNW 25.3 mph 33.4 mph N/A   Overcast
12:27 PM 33.8 °F 20.5 °F 26.6 °F 75% 29.97 in 10.0 mi NNW 27.6 mph 36.8 mph N/A   Overcast
12:53 PM 33.1 °F 20.9 °F 26.1 °F 75% 30.00 in 10.0 mi NNW 21.9 mph 36.8 mph N/A   Overcast
1:13 PM 33.8 °F 19.6 °F 24.8 °F 70% 29.97 in 10.0 mi North 32.2 mph 39.1 mph N/A   Mostly Cloudy
1:24 PM 33.8 °F 21.0 °F 24.8 °F 70% 29.97 in 10.0 mi NNW 25.3 mph 41.4 mph N/A   Mostly Cloudy
1:53 PM 34.0 °F 21.3 °F 24.1 °F 67% 30.01 in 10.0 mi North 25.3 mph 40.3 mph N/A   Overcast
2:53 PM 33.1 °F 18.9 °F 23.0 °F 66% 30.04 in 10.0 mi North 31.1 mph 36.8 mph N/A   Overcast
3:45 PM 33.8 °F 21.0 °F 21.2 °F 60% 30.05 in 10.0 mi North 25.3 mph 35.7 mph N/A   Overcast
3:53 PM 33.1 °F 19.8 °F 21.9 °F 64% 30.08 in 10.0 mi North 26.5 mph - N/A   Overcast
4:14 PM 32.0 °F 19.5 °F 21.2 °F 64% 30.06 in 10.0 mi North 21.9 mph 35.7 mph N/A   Overcast
4:53 PM 30.0 °F 16.0 °F 21.0 °F 69% 30.14 in 10.0 mi North 25.3 mph 33.4 mph N/A   Mostly Cloudy
5:05 PM 30.2 °F 17.4 °F 21.2 °F 69% 30.12 in 10.0 mi North 20.7 mph 27.6 mph N/A   Scattered Clouds
5:12 PM 30.2 °F 17.4 °F 21.2 °F 69% 30.11 in 10.0 mi NNE 20.7 mph - N/A   Mostly Cloudy
5:43 PM 28.4 °F 15.4 °F 19.4 °F 69% 30.12 in 10.0 mi North 19.6 mph - N/A   Partly Cloudy
5:53 PM 28.9 °F 18.2 °F 21.0 °F 72% 30.16 in 10.0 mi North 13.8 mph - N/A   Partly Cloudy
6:53 PM 28.0 °F 17.5 °F 19.9 °F 72% 30.19 in 10.0 mi North 12.7 mph - N/A   Clear
7:53 PM 26.1 °F 18.4 °F 21.0 °F 81% 30.21 in 10.0 mi North 6.9 mph - N/A   Clear
8:53 PM 25.0 °F 20.7 °F 19.9 °F 81% 30.24 in 10.0 mi NW 3.5 mph - N/A   Clear
9:53 PM 23.0 °F 18.4 °F 19.0 °F 85% 30.21 in 10.0 mi North 3.5 mph - N/A   Clear
10:53 PM 19.9 °F 13.4 °F 17.1 °F 89% 30.24 in 10.0 mi West 4.6 mph - N/A   Clear
11:53 PM 19.9 °F 14.9 °F 17.1 °F 89% 30.22 in 10.0 mi WNW 3.5 mph - N/A   Clear